Theta_e
327 328 329 329 328 325 323 325 326 326 327 329 331 331 332 333 335 336 336 335 334 333 333 334 335 334 334 332 330 329 331 333 336 339 341 341 341 341 341 342 345 345 344 345 347 343 337 333 334 333 333 334 333 333 333 333 331 330 330 330 331 331 332 333 334 334 334 334 336 337 338 339 339 340
326 328 330 329 327 324 323 324 324 324 324 325 327 329 330 332 333 335 335 335 334 334 334 333 334 334 334 334 332 329 329 331 334 337 340 341 340 340 340 340 343 344 343 343 346 346 339 333 334 334 333 333 334 334 334 333 332 331 331 330 331 332 333 333 333 333 333 335 336 337 338 339 340 340
325 327 329 328 325 323 324 323 321 321 321 322 324 326 327 329 331 333 334 334 333 334 334 333 333 334 334 335 334 332 331 331 334 337 340 340 340 340 341 342 343 343 343 343 344 344 341 335 334 334 333 333 334 335 336 335 334 332 332 332 332 332 333 334 334 334 335 335 335 337 338 339 339 339
325 326 326 325 325 324 322 321 320 320 320 321 323 325 326 328 329 330 332 332 333 333 334 334 332 332 333 334 334 334 331 330 333 336 337 336 338 339 341 341 342 342 342 343 343 344 343 341 336 334 335 334 334 335 336 337 336 334 333 333 332 333 335 336 336 335 335 334 335 337 338 338 338 337
325 324 323 324 325 323 320 319 319 319 319 319 320 321 323 325 327 328 329 331 332 331 332 333 333 332 333 334 335 334 333 331 333 335 336 335 336 338 338 338 339 339 339 341 343 344 344 344 341 336 336 337 336 336 336 337 337 336 334 333 333 335 336 336 335 334 334 335 337 338 337 337 336 336
324 323 322 325 326 322 319 319 319 317 316 316 317 318 320 323 325 327 328 329 331 331 331 332 334 334 334 334 334 334 334 333 332 333 335 338 338 336 336 336 336 337 338 339 342 343 343 344 343 338 336 338 337 336 337 336 336 335 334 334 335 336 336 335 335 334 334 337 338 338 337 336 337 338
323 322 322 325 325 321 318 319 317 315 316 317 317 318 319 321 323 325 326 328 330 331 332 332 333 333 334 334 334 333 334 333 331 332 334 337 339 338 336 336 336 338 340 340 341 342 342 344 343 339 337 338 337 336 337 336 336 336 335 336 336 337 336 335 335 335 337 338 337 336 336 337 339 340
324 323 322 324 325 321 318 318 316 315 316 318 318 318 319 321 322 323 324 325 328 331 332 333 333 333 333 334 335 335 335 333 332 334 336 337 338 337 336 337 339 341 341 339 340 340 341 343 342 339 337 337 337 337 337 337 337 337 337 337 337 337 336 336 337 337 338 338 337 337 338 340 340 339
326 326 324 324 325 321 319 318 315 315 317 318 318 318 319 320 321 322 321 323 326 330 332 334 334 333 333 334 335 336 336 334 333 335 338 338 338 338 336 336 340 341 340 338 338 339 340 342 342 339 338 338 336 337 338 337 337 338 338 338 337 337 337 337 338 338 337 337 337 339 339 339 338 338
327 327 327 325 324 322 320 317 315 315 317 318 318 318 318 318 319 320 320 321 323 327 330 332 334 335 335 335 335 335 335 336 336 338 339 339 339 339 336 334 337 339 339 338 338 339 340 342 343 341 338 337 336 336 337 337 338 338 338 338 338 338 339 339 338 337 336 337 337 337 337 336 336 337
328 327 327 326 325 324 320 317 315 316 316 317 317 318 318 317 317 318 319 320 322 325 328 331 333 334 335 335 335 334 335 336 337 339 341 341 340 339 338 336 336 337 338 338 338 339 340 342 343 341 338 337 336 337 338 338 339 339 339 340 339 339 339 337 337 336 336 336 336 335 336 336 336 337
327 327 326 326 326 324 321 318 317 317 317 317 317 318 318 317 316 317 317 319 321 324 326 329 331 333 334 335 335 335 335 336 336 336 339 341 341 340 340 339 338 337 337 338 339 339 340 341 342 340 338 336 337 338 339 339 338 338 338 338 338 337 337 336 336 336 336 336 336 336 336 336 337 337
324 326 326 326 326 325 322 320 320 319 319 319 319 319 318 317 316 317 317 319 321 323 325 327 329 332 333 334 335 335 336 336 335 334 336 340 340 340 340 339 339 338 337 338 339 338 339 341 341 339 338 337 338 339 339 337 335 336 336 336 336 336 336 337 337 337 337 337 337 337 336 336 336 336
325 327 327 327 326 326 323 320 320 320 320 320 320 319 318 317 317 317 319 320 321 322 323 325 327 330 332 333 334 335 335 336 335 334 335 339 340 339 340 340 340 339 339 339 340 339 338 339 340 340 339 338 338 339 338 336 334 335 335 336 337 337 337 337 338 339 340 339 338 337 336 336 336 336
325 326 327 327 327 326 324 321 319 319 320 321 320 319 318 317 316 318 319 321 322 322 322 323 325 327 329 331 333 335 335 335 335 334 335 337 339 339 341 342 341 339 339 341 340 339 339 340 341 341 340 339 339 337 337 336 335 335 336 337 338 338 338 338 338 340 340 339 338 337 336 336 335 336
324 326 327 327 327 326 325 323 320 319 319 320 319 318 317 317 316 318 320 321 322 322 323 323 324 326 327 329 331 333 335 335 335 336 335 335 337 338 340 342 341 339 338 341 341 340 340 341 341 341 341 340 339 336 334 335 336 335 336 337 338 338 337 337 338 338 339 339 338 337 336 335 335 336
325 326 327 326 326 326 326 324 321 319 319 319 318 317 317 317 317 318 320 321 322 323 323 324 324 325 326 327 329 332 334 335 337 337 337 336 337 339 340 341 342 338 337 339 341 340 339 340 340 341 341 339 338 336 333 334 335 336 336 337 338 338 337 337 337 337 338 338 337 337 337 336 335 336
325 325 326 325 324 324 324 322 321 320 319 319 319 319 318 317 317 318 319 320 322 323 323 323 323 324 325 325 327 329 332 334 336 338 338 338 338 339 339 340 340 340 338 338 341 341 340 340 340 341 340 339 338 336 335 334 334 335 336 336 337 337 337 336 336 337 337 337 337 338 338 337 335 335
323 324 325 323 321 321 321 320 320 320 320 320 320 321 320 318 317 317 318 320 322 322 323 323 323 323 323 324 325 327 330 332 334 337 339 339 338 339 339 340 340 340 339 339 341 343 342 341 342 341 340 340 339 337 337 336 335 335 337 337 337 337 337 336 337 337 337 337 337 337 338 337 335 335
322 323 324 323 322 321 320 319 320 321 321 320 321 321 320 318 317 317 318 320 322 323 323 324 324 324 324 325 325 326 328 331 333 335 337 338 339 339 339 341 341 340 339 340 341 343 342 341 341 340 340 340 339 338 338 339 338 337 337 338 338 337 338 339 339 339 338 337 337 337 337 337 336 336
322 323 324 324 323 322 320 318 319 321 321 321 321 321 319 317 317 317 317 319 321 322 323 324 326 327 327 327 327 327 328 331 332 335 336 338 338 337 338 340 340 340 340 340 341 342 342 341 341 340 340 340 340 339 339 338 338 338 338 337 337 337 338 340 340 339 338 337 337 337 337 336 336 337
321 322 324 323 323 322 321 319 319 320 320 321 321 321 318 317 317 317 317 318 319 322 324 325 327 330 330 329 328 328 329 330 332 334 336 337 337 337 338 339 340 340 340 340 341 341 341 341 340 340 341 341 340 339 339 338 338 338 337 336 337 337 338 339 339 339 338 337 337 337 336 336 337 337
321 322 323 323 323 322 321 319 318 319 320 321 321 320 318 317 317 317 316 317 319 322 324 325 328 331 332 332 331 329 329 330 331 333 336 337 337 337 338 340 340 340 340 339 340 341 341 341 341 341 342 342 341 340 340 340 339 337 336 336 337 338 337 338 339 339 338 337 337 337 337 336 337 338
322 322 322 323 323 322 320 318 317 318 320 320 321 320 318 317 317 317 317 317 319 322 323 324 326 330 331 332 332 330 329 329 330 332 336 337 337 337 339 339 340 339 339 339 340 340 341 341 342 341 340 341 342 342 341 340 340 338 338 338 339 338 338 338 339 339 338 338 338 337 337 337 338 339
323 323 322 322 322 321 318 316 317 319 320 320 321 321 320 318 318 318 317 316 318 321 323 323 325 328 331 332 332 331 330 330 330 332 334 336 336 336 338 339 339 339 338 338 340 340 341 341 342 342 340 339 341 342 341 341 340 340 340 340 340 340 340 340 340 340 339 338 339 338 337 338 339 340
323 323 322 322 322 321 317 316 318 320 320 320 321 322 320 318 319 320 318 316 317 320 321 322 323 326 330 333 334 334 332 331 331 331 332 333 335 336 337 338 338 338 337 337 339 340 341 341 342 342 342 340 340 342 342 342 341 341 341 342 342 342 342 343 343 341 339 340 340 339 338 338 339 341
322 322 322 322 322 320 317 318 321 321 320 320 322 322 321 319 321 322 319 317 317 319 321 322 323 324 327 331 334 336 334 332 332 333 332 332 333 335 336 337 337 337 337 337 337 339 341 341 341 342 343 342 342 343 343 343 343 343 343 343 343 343 344 345 344 341 340 341 341 339 338 339 340 342
322 322 322 322 320 319 320 322 322 322 321 321 322 322 322 320 321 322 320 317 317 318 320 322 323 323 324 328 332 336 336 333 333 334 333 332 332 333 334 335 335 336 337 337 338 339 340 340 341 342 343 344 344 344 343 343 343 343 343 345 345 345 346 346 344 342 341 342 341 339 339 339 341 342
323 323 322 321 320 320 322 323 323 323 322 321 321 322 321 321 321 322 320 317 316 317 319 322 323 323 323 324 328 335 337 335 334 335 335 335 334 334 334 334 334 334 336 337 339 339 339 340 342 342 342 343 344 345 344 343 343 342 343 346 346 346 346 345 343 342 342 341 340 339 339 339 341 343
322 322 322 322 321 322 323 323 322 322 322 321 320 320 321 321 322 322 320 318 317 317 318 320 323 323 321 321 325 332 337 337 337 337 336 336 336 336 336 335 334 333 334 336 338 338 338 340 342 342 342 342 343 344 344 343 343 342 342 345 346 346 345 344 343 341 341 341 340 339 340 341 342 342
322 322 322 322 322 323 323 321 321 322 321 320 320 321 321 322 322 323 321 318 317 317 317 319 321 322 320 319 320 325 330 334 336 337 336 336 337 337 336 337 336 335 335 335 336 336 337 339 340 340 341 341 340 341 343 344 344 343 342 344 346 345 344 344 343 342 341 341 340 340 340 341 342 342
322 322 323 323 323 322 321 320 321 321 321 320 321 321 321 322 322 323 322 320 318 318 317 317 319 320 321 320 318 319 322 326 330 335 337 337 337 336 336 337 336 337 337 336 336 336 335 337 338 337 338 338 338 339 340 342 343 344 343 344 345 345 344 344 343 342 342 341 341 340 340 340 341 341
322 323 323 323 322 322 321 320 321 320 320 320 321 321 321 322 322 323 322 321 320 318 317 317 317 318 320 321 319 318 319 320 323 327 332 336 337 337 338 338 337 337 337 337 337 336 335 336 336 336 337 338 337 336 337 338 340 342 343 343 344 344 344 344 343 342 342 342 341 340 340 340 339 340
322 322 322 322 321 321 320 320 320 320 320 320 320 320 321 321 322 322 323 322 322 320 318 317 317 317 318 320 320 320 318 318 319 321 324 328 331 334 335 336 337 337 337 338 337 337 336 336 336 337 338 338 336 336 339 341 341 341 342 343 344 344 344 344 343 342 342 341 340 340 339 338 338 339
321 321 320 320 320 320 319 319 319 319 320 319 319 320 320 320 321 322 322 322 322 321 319 318 318 318 317 317 319 320 319 318 318 318 319 321 324 326 328 331 333 334 335 338 339 338 338 339 339 339 339 338 337 338 341 343 343 343 343 343 344 343 343 343 342 342 342 341 340 339 338 338 337 338
320 320 319 319 318 318 318 318 318 318 318 319 319 320 320 319 320 320 321 322 322 322 321 319 318 319 319 317 317 319 320 320 319 318 318 318 319 321 323 327 328 330 332 335 338 338 339 340 340 339 338 338 339 340 341 342 343 343 343 343 343 343 343 342 342 342 342 341 339 338 338 337 337 336
319 319 319 318 318 318 318 318 318 318 318 318 318 319 319 319 319 319 320 321 321 322 322 320 319 319 320 319 318 318 319 320 320 320 320 319 318 318 319 321 324 326 328 330 332 335 337 338 339 340 340 340 340 339 339 340 341 341 342 342 342 342 342 342 341 342 342 340 338 337 337 337 336 335
318 318 318 318 318 318 318 318 317 317 317 317 318 318 318 318 318 318 318 319 320 321 322 321 320 319 319 320 320 319 318 318 319 320 320 320 320 319 318 318 319 322 324 326 327 329 332 333 335 337 338 338 337 335 334 336 338 340 341 341 341 341 341 341 341 342 341 339 337 338 338 337 337 335
317 318 318 318 317 317 317 316 316 315 315 315 315 316 316 316 316 316 317 317 318 319 320 321 321 321 320 320 320 319 318 318 318 319 319 320 321 321 320 319 318 318 320 322 324 325 327 329 330 330 332 333 332 332 333 334 335 336 339 340 340 341 341 340 340 341 339 337 337 339 339 338 338 337
317 316 316 315 315 315 314 313 312 312 312 311 311 312 312 313 313 314 314 315 316 317 318 319 320 321 321 321 321 320 320 319 319 319 319 320 322 322 321 320 319 318 317 317 319 321 323 324 325 326 327 327 328 329 330 331 331 332 335 337 338 339 340 339 339 340 338 337 338 339 339 338 338 337
313 313 313 312 311 311 311 311 310 309 309 309 309 309 309 309 310 310 311 311 312 313 315 317 318 319 320 320 320 321 321 321 321 321 320 321 323 323 322 321 321 320 318 316 316 317 318 319 321 323 324 324 325 326 327 328 328 329 331 332 333 335 337 338 339 339 338 338 339 339 339 338 338 338
311 311 310 310 310 309 309 309 309 309 308 308 307 307 307 307 307 307 307 308 308 310 311 314 316 317 317 318 319 320 320 321 322 322 323 323 323 323 323 323 323 322 320 317 315 315 316 316 318 320 322 323 323 324 324 324 324 326 327 328 330 331 332 333 334 336 336 336 337 338 338 338 338 338
311 309 308 308 308 307 308 308 307 307 307 306 306 306 306 306 306 307 306 306 306 307 308 310 312 313 315 316 317 318 318 319 320 321 322 322 323 323 323 323 324 324 323 320 317 315 315 315 316 317 318 320 320 321 321 320 320 322 324 325 325 326 328 329 329 330 332 334 335 335 335 336 337 337
309 307 306 306 306 306 306 305 305 305 305 304 304 304 304 303 304 304 305 304 304 304 305 306 308 309 311 312 314 315 316 316 317 319 320 321 321 322 323 323 323 323 323 323 321 319 316 315 315 315 316 316 317 318 319 319 319 321 322 321 321 322 324 325 325 326 328 329 329 330 331 333 334 334
307 305 304 305 305 304 304 303 303 303 303 302 302 302 301 301 300 301 302 302 302 302 303 303 304 305 306 308 310 312 313 313 314 315 317 318 320 320 321 322 323 323 323 323 323 322 320 318 317 316 316 316 316 316 317 318 320 321 322 321 320 321 322 322 322 323 324 325 325 326 328 329 330 329
Wind_Speed
17 17 17 17 18 22 25 25 24 24 24 25 26 28 30 31 33 34 35 37 37 36 33 31 33 33 32 32 32 29 29 29 28 29 33 36 37 38 39 39 40 40 40 39 38 37 36 35 37 38 38 37 37 36 36 36 36 36 35 34 33 33 32 31 30 29 28 28 27 27 26 26 26 26
17 17 16 16 19 23 24 24 25 26 27 28 29 29 30 32 33 33 36 41 40 37 36 35 33 32 31 31 32 31 29 27 25 26 30 34 37 38 38 38 39 39 40 39 38 39 37 35 35 36 36 36 35 35 36 36 36 37 36 35 34 33 31 31 30 29 29 29 28 28 27 27 27 27
17 17 17 18 20 22 21 23 26 28 29 29 30 30 30 31 33 33 35 41 43 39 38 39 37 34 33 31 30 30 29 28 25 24 27 29 32 35 37 39 40 39 38 37 37 38 37 36 36 35 35 35 35 36 36 36 37 37 37 36 34 33 32 31 31 30 29 29 28 28 27 27 27 27
16 17 18 20 20 19 20 23 26 27 28 29 30 31 31 30 31 32 33 38 44 43 39 40 41 39 36 35 33 30 30 30 29 28 28 30 31 33 35 37 38 38 37 37 37 36 36 36 37 37 36 36 36 36 36 36 37 37 37 36 35 34 33 32 31 30 30 29 28 28 27 27 27 27
18 19 19 19 18 18 21 23 25 27 29 31 32 31 32 32 31 31 33 35 41 45 41 38 39 39 37 36 35 33 31 31 31 31 31 31 31 33 34 36 36 36 37 38 39 38 36 35 37 38 37 36 36 36 36 36 37 37 37 36 35 34 33 31 31 31 30 30 28 27 27 27 27 27
19 20 20 18 17 19 22 22 24 29 31 32 33 32 31 31 30 30 32 34 37 43 44 40 38 38 36 36 36 35 33 32 33 34 33 31 32 32 32 34 35 36 37 38 41 42 38 35 37 38 37 36 35 34 34 35 35 36 36 36 35 34 33 32 32 31 30 29 28 28 27 27 27 26
20 21 21 18 17 19 21 22 25 29 31 31 33 33 31 30 29 29 29 31 33 38 42 41 41 40 37 36 36 36 35 33 33 35 34 32 33 33 31 32 33 35 36 36 39 41 39 36 37 38 37 36 35 33 33 32 33 34 34 35 35 34 33 33 32 31 30 29 28 28 28 27 26 26
20 20 20 18 17 19 21 22 25 28 29 30 32 34 32 30 30 31 31 30 31 33 37 38 39 39 37 35 34 34 34 32 31 33 34 33 35 36 34 32 31 32 33 32 33 37 38 36 37 38 37 37 35 33 33 32 32 32 33 34 34 34 34 33 31 30 29 29 28 28 27 27 26 26
21 20 19 18 18 20 21 22 25 27 28 29 32 33 32 31 32 34 35 34 31 30 32 34 34 36 35 33 33 32 31 30 29 31 33 34 35 37 36 33 32 31 31 29 29 33 35 35 36 38 37 37 36 34 33 33 32 32 33 33 34 34 32 31 29 29 28 28 28 27 27 27 26 26
20 20 19 19 19 20 21 21 24 26 28 30 31 32 33 33 34 36 37 37 34 31 30 31 32 33 32 31 33 33 31 29 28 30 33 33 34 35 35 36 36 35 33 30 30 32 33 33 35 37 37 36 35 35 34 33 33 32 32 33 32 31 30 29 28 28 28 28 27 27 27 27 26 26
21 21 20 20 20 20 20 20 22 25 28 30 32 32 33 35 37 38 39 37 35 32 30 28 30 32 33 32 33 33 32 31 30 30 32 33 33 33 33 35 38 39 37 33 31 32 32 32 34 35 35 35 35 35 34 33 32 31 31 31 30 30 29 28 27 27 26 26 26 26 26 26 26 26
23 23 22 21 22 21 20 20 22 25 29 31 33 34 35 37 39 41 41 38 35 32 30 28 27 30 32 32 32 33 33 33 33 33 33 33 34 34 33 33 36 38 37 34 33 33 33 33 34 35 35 34 34 34 33 32 31 31 30 30 30 29 28 27 26 25 24 23 23 23 24 24 26 27
24 24 23 22 22 22 21 22 24 26 28 30 32 34 36 38 41 43 42 39 35 32 31 29 27 27 29 30 31 33 34 34 34 34 35 35 34 34 34 34 34 34 35 35 34 34 34 35 36 36 35 34 34 33 33 32 31 30 30 30 29 28 28 26 25 23 21 21 21 21 22 23 24 26
23 23 23 23 23 24 23 25 27 28 28 29 31 33 35 39 42 44 42 38 35 33 32 30 28 27 28 29 29 31 34 33 33 34 36 36 34 33 34 34 34 33 33 35 36 35 35 36 36 37 36 34 34 33 33 32 31 30 29 29 29 29 28 26 24 21 20 20 20 20 21 23 24 25
22 23 25 25 24 25 26 27 27 28 29 29 30 33 35 38 41 42 41 38 36 35 34 31 29 28 30 30 29 30 31 32 33 35 37 37 36 34 35 35 35 34 33 34 35 36 37 38 38 38 38 36 35 34 32 31 30 29 29 29 29 29 28 26 24 21 20 19 19 20 21 23 24 26
22 23 25 25 24 26 27 28 28 29 29 28 29 33 35 38 41 42 40 37 34 33 33 31 29 29 31 32 31 29 29 30 32 34 36 39 39 38 38 37 36 35 33 33 34 36 38 39 39 39 39 38 37 35 32 31 30 29 29 29 29 29 28 27 26 24 23 21 21 22 23 24 25 26
22 23 24 25 26 27 27 28 28 27 27 28 28 31 34 38 41 43 42 36 29 28 30 32 32 30 31 34 33 31 29 29 31 32 34 37 39 39 40 39 38 36 34 33 34 36 38 39 40 41 41 40 38 36 33 32 31 30 29 29 30 30 29 29 27 26 26 25 24 25 26 26 27 27
21 24 26 27 27 27 26 25 25 25 26 28 29 30 32 37 41 43 44 39 31 28 30 33 35 35 34 36 36 33 30 31 32 33 33 36 39 40 40 40 38 37 36 34 34 35 37 39 41 42 42 41 40 38 35 33 32 31 30 30 30 31 30 29 28 27 27 27 27 27 28 28 28 28
21 24 27 26 25 24 23 22 21 22 25 28 31 31 32 37 42 44 45 42 38 35 35 35 37 38 38 38 38 35 32 33 34 34 34 35 37 37 37 38 38 38 37 35 33 34 36 39 42 44 42 41 40 39 37 35 33 32 31 31 31 31 31 30 28 27 28 28 28 29 29 30 29 28
22 24 24 23 21 21 21 20 19 22 25 28 31 32 33 37 43 45 45 46 44 41 40 39 37 36 39 40 38 36 33 33 33 35 36 34 32 31 32 34 36 37 37 36 34 34 34 36 39 42 41 40 40 40 38 37 34 32 31 31 31 32 31 31 30 29 29 29 30 30 30 30 29 28
22 23 22 21 21 21 20 19 20 23 26 28 31 31 32 37 43 46 47 49 47 45 44 42 36 33 37 38 37 37 37 36 34 34 36 36 32 31 32 32 33 34 35 35 33 33 33 33 35 37 37 38 39 39 39 38 35 33 32 32 32 32 32 31 31 30 30 30 30 31 31 30 29 28
21 22 22 22 22 22 21 21 22 24 27 29 29 29 30 37 43 47 50 51 51 49 48 44 34 28 33 35 36 39 40 40 39 37 37 37 35 35 35 34 32 31 32 33 32 32 33 32 32 33 33 34 36 38 38 38 36 34 33 33 34 33 33 33 32 31 31 31 31 31 31 29 28 28
21 22 22 22 22 22 21 21 23 25 27 28 27 26 28 35 41 46 50 53 53 52 50 45 35 25 25 27 30 37 41 42 43 43 39 35 35 36 35 32 30 29 31 33 32 32 33 32 32 32 30 30 33 36 37 37 36 35 34 35 35 35 35 34 34 32 32 31 31 30 29 28 28 27
23 23 23 23 23 22 21 22 25 26 26 26 26 23 26 33 38 43 49 53 53 52 50 46 39 28 20 19 22 30 39 44 45 46 43 37 35 36 34 31 30 30 31 31 30 31 33 32 32 33 31 29 29 31 33 36 36 36 36 36 37 37 36 36 34 32 30 30 29 29 28 27 27 26
23 23 24 24 23 21 22 24 26 25 24 25 25 22 23 29 33 38 46 52 53 52 50 47 42 32 19 14 17 22 31 41 46 47 47 42 38 36 34 31 31 32 32 30 28 29 32 32 32 33 33 32 30 28 28 31 34 35 35 36 37 37 36 35 32 30 29 29 28 27 28 27 26 26
22 22 22 22 22 22 24 24 25 24 24 24 24 22 22 25 29 33 41 49 52 51 50 49 46 38 24 10 12 18 23 32 42 46 47 44 39 36 35 32 30 32 34 31 28 27 29 31 31 31 32 32 32 30 28 28 30 32 33 34 36 37 36 34 32 30 29 28 27 27 27 27 26 26
21 20 20 21 22 23 23 23 23 23 23 23 24 23 21 23 27 31 37 45 49 48 48 49 49 45 35 20 5 12 18 25 35 40 42 43 41 39 38 35 31 31 31 29 29 29 29 30 32 32 32 32 31 31 31 29 28 29 32 35 36 36 35 33 32 31 29 27 26 27 27 27 26 26
19 18 19 21 22 20 20 20 21 22 23 24 24 24 23 24 28 30 33 40 45 46 46 47 49 48 43 32 14 5 15 22 30 33 34 37 40 40 40 38 35 32 29 27 29 31 29 31 33 32 31 30 30 30 32 32 29 27 30 32 33 34 34 33 32 31 29 28 27 27 28 28 27 26
16 16 18 20 19 17 16 18 20 21 22 23 24 24 23 23 25 25 28 36 42 43 44 46 48 48 46 41 26 2 16 21 24 28 30 32 34 34 37 39 39 38 33 29 29 30 29 30 32 30 28 28 29 30 30 30 29 27 26 28 30 31 30 30 30 29 28 28 28 28 29 28 27 27
16 16 17 18 16 14 14 17 19 21 20 20 22 22 21 20 21 20 23 31 38 40 42 44 45 45 46 48 37 11 12 19 21 26 29 30 31 30 30 33 36 39 38 34 31 32 29 25 22 22 23 24 24 25 26 26 26 26 26 28 30 28 26 26 27 27 26 26 27 27 28 28 28 27
15 15 16 15 12 12 14 17 20 19 17 17 18 19 19 19 20 19 19 24 30 35 39 41 41 41 44 49 48 35 16 1 14 24 28 29 31 31 31 32 32 34 36 36 35 34 33 28 21 18 19 21 22 22 23 23 24 25 26 28 30 29 26 26 26 25 24 25 24 24 25 27 29 29
14 13 12 10 10 13 17 19 19 17 15 15 16 17 18 19 20 19 17 18 23 29 35 38 39 40 41 44 47 47 41 29 12 8 23 31 31 29 30 31 32 32 33 35 36 37 37 34 27 22 22 24 26 26 25 25 26 27 28 28 29 29 27 26 25 25 24 24 24 23 23 25 28 29
12 10 8 11 15 18 18 17 16 15 14 15 15 16 18 19 20 21 19 18 20 24 29 35 38 38 39 40 42 43 44 43 37 23 4 17 27 29 26 25 27 29 29 31 34 35 37 36 32 28 27 27 28 28 28 29 30 31 33 32 30 29 28 25 24 25 25 25 25 23 21 22 25 26
11 11 11 14 16 15 13 13 13 13 14 15 16 17 18 20 21 21 21 19 19 20 23 27 31 33 36 38 39 40 42 42 41 39 32 18 7 13 15 18 22 22 22 27 31 31 33 35 34 29 25 25 27 28 29 30 31 32 33 33 30 30 29 26 23 23 25 25 25 22 19 20 22 22
11 11 11 11 11 10 9 10 12 13 14 16 17 17 19 21 22 23 22 20 19 19 19 21 25 28 31 36 38 37 38 39 39 39 41 37 30 23 18 13 11 8 10 18 24 25 26 30 30 27 23 23 25 25 23 24 25 25 27 29 29 29 28 25 22 22 23 24 23 21 20 20 20 19
10 9 8 8 8 9 10 11 13 14 15 17 18 19 21 22 24 24 23 22 21 20 17 18 21 23 26 30 33 33 33 34 36 38 40 40 38 35 32 28 21 16 12 10 12 16 19 22 24 25 24 22 22 21 19 20 21 22 24 27 28 27 26 24 23 23 24 24 22 20 19 18 17 16
8 8 8 8 8 9 11 12 13 14 14 15 17 19 20 21 22 23 23 22 23 22 19 17 18 20 22 24 27 29 30 30 31 34 37 38 38 37 35 34 31 27 23 19 11 8 13 16 18 21 24 25 23 20 19 20 21 22 25 27 29 28 27 26 25 25 24 23 22 20 18 17 15 14
6 6 6 6 7 8 10 10 10 10 11 12 14 15 16 17 18 19 20 20 21 22 22 19 17 17 18 21 22 24 27 27 28 30 32 33 34 35 35 35 33 30 28 27 24 16 11 11 13 14 18 22 21 18 16 15 15 18 23 26 29 30 28 27 27 27 26 25 24 22 20 17 15 15
5 4 4 5 6 6 7 7 8 9 10 11 12 13 14 15 16 16 17 18 18 19 20 20 18 16 16 18 19 19 20 22 24 26 27 28 28 29 31 33 33 32 29 28 28 26 22 19 18 15 14 16 18 18 17 15 12 10 15 21 25 27 28 29 30 29 27 27 27 25 22 20 18 18
4 4 4 5 5 5 5 7 9 10 11 12 13 13 14 14 15 16 16 17 17 17 17 16 17 17 17 17 18 17 16 17 18 20 21 23 24 24 25 27 29 31 31 31 30 27 26 24 22 21 20 21 23 22 20 20 18 12 7 11 16 21 26 31 34 32 29 29 29 27 26 25 23 21
6 6 5 5 5 6 7 8 9 10 11 12 13 14 14 15 15 16 16 17 17 17 17 15 15 15 17 17 18 18 18 17 17 17 18 18 19 20 21 22 23 26 28 29 29 27 24 22 19 17 17 18 19 20 22 23 22 19 16 12 8 8 12 19 27 30 28 29 32 31 29 27 25 23
6 6 6 5 6 7 7 8 9 10 10 11 13 13 13 14 14 15 15 15 16 16 17 16 15 15 16 17 18 19 20 19 18 17 16 16 15 16 18 19 19 20 21 23 23 22 21 21 19 15 13 13 15 19 24 26 25 23 22 20 16 12 10 7 9 13 14 18 25 30 30 29 26 24
3 5 5 5 5 6 7 8 9 9 10 11 13 13 13 13 13 14 14 14 15 15 15 16 15 15 16 17 17 18 19 20 19 17 16 14 14 15 16 16 15 15 16 17 17 17 18 21 21 18 16 15 15 18 21 22 21 21 21 21 20 19 18 17 14 8 4 5 11 18 23 27 27 24
3 3 3 4 4 5 7 8 9 10 11 11 12 13 13 13 12 12 12 13 13 13 13 13 14 14 15 16 16 17 18 20 19 18 16 14 13 13 14 14 13 13 13 13 13 13 14 16 17 18 19 18 17 16 16 16 17 18 18 17 17 18 19 19 19 19 16 14 13 13 12 16 22 23
2 3 4 4 6 6 7 9 10 10 11 11 12 12 13 12 12 11 10 10 10 11 11 11 13 14 15 15 14 15 16 18 18 18 17 16 15 13 13 12 11 10 11 11 10 10 10 10 11 13 15 16 16 16 16 15 15 15 15 13 13 14 15 15 16 18 21 21 20 18 14 13 16 19
Wind_Direction
328 327 327 326 328 332 334 333 330 326 322 316 312 307 303 300 292 286 286 286 284 282 277 272 273 277 278 277 274 271 267 261 255 247 242 242 245 247 248 250 251 251 250 246 246 250 249 245 244 244 244 245 245 245 245 246 246 245 245 245 247 249 251 253 254 255 256 257 258 259 259 260 261 264
326 322 322 323 328 332 332 334 335 333 328 321 315 308 303 300 295 288 287 287 284 282 280 275 273 273 274 275 275 274 272 265 259 255 249 244 244 247 250 252 253 253 253 249 244 245 248 245 243 243 242 243 244 244 245 245 245 244 244 244 245 247 249 251 252 253 254 255 256 258 259 260 262 263
324 321 320 322 327 331 333 336 337 335 332 326 319 314 307 299 295 294 292 289 285 283 281 278 276 273 270 269 268 269 269 266 263 260 255 250 249 249 249 251 252 253 253 251 244 240 243 245 244 243 242 242 242 243 244 244 244 243 243 242 243 245 248 250 251 251 252 254 255 256 258 259 259 260
322 322 320 320 325 333 338 339 338 336 334 331 326 323 317 306 297 295 295 291 288 287 284 283 279 274 272 270 264 261 260 261 262 261 258 255 253 251 249 248 250 251 251 250 245 239 239 243 246 245 243 243 242 242 243 244 243 242 241 241 242 244 247 249 249 250 252 254 255 255 255 256 257 258
320 322 322 320 321 332 339 341 341 340 337 334 330 326 322 314 304 299 296 295 293 290 286 285 282 277 275 273 266 260 256 255 257 259 260 257 253 250 249 248 248 250 251 249 244 241 240 243 245 245 244 244 243 242 243 243 243 241 240 240 241 244 245 245 246 249 253 254 254 254 254 255 256 257
316 321 322 318 318 330 337 341 344 342 339 338 333 329 325 320 313 306 298 295 296 293 287 283 281 279 277 273 269 264 258 255 255 256 258 256 251 250 251 251 250 250 251 249 244 242 241 242 244 243 243 244 243 242 242 243 242 240 238 238 240 241 242 243 247 251 252 252 252 253 255 255 255 255
310 317 320 314 313 326 334 339 344 344 344 344 339 334 331 326 322 318 309 297 293 295 293 284 276 277 278 272 270 267 262 259 256 256 257 254 250 252 254 256 254 250 249 248 243 240 239 239 241 241 241 241 240 239 240 240 240 238 237 238 239 240 241 244 248 249 249 250 252 253 254 253 253 255
306 312 315 310 309 321 331 336 343 346 346 347 344 340 336 332 327 327 324 313 296 291 294 289 277 275 277 271 268 268 265 262 256 254 255 254 252 253 254 255 254 247 243 244 241 237 236 237 238 238 238 238 237 237 238 239 239 238 238 239 240 241 243 245 245 245 247 249 251 252 251 251 253 255
303 306 308 305 304 316 327 334 341 346 347 348 348 346 343 338 332 329 329 325 310 293 290 291 282 277 274 268 264 265 264 262 256 251 253 253 253 253 251 250 248 243 241 244 242 236 234 235 236 235 235 235 236 236 237 239 239 239 239 240 242 242 242 241 241 243 246 248 248 249 249 251 252 254
300 299 300 300 300 309 321 331 340 345 347 347 347 347 346 343 337 332 329 327 319 304 291 288 283 277 270 265 264 263 261 258 252 249 251 253 253 252 248 245 242 241 243 246 242 236 232 232 234 232 232 235 236 237 237 239 240 239 240 239 239 238 237 237 239 242 244 245 246 247 248 250 251 253
297 295 294 294 295 302 313 324 336 343 345 344 344 344 344 343 340 335 332 328 322 313 301 291 283 276 271 266 263 261 259 254 248 247 249 250 251 249 244 239 237 238 244 246 240 234 231 232 233 231 231 233 236 236 236 237 237 236 236 235 234 233 234 235 237 238 240 242 244 246 249 250 252 253
295 294 293 291 289 295 306 315 323 333 338 340 341 341 341 342 340 337 334 330 324 317 310 300 288 280 276 269 261 259 257 252 247 245 244 245 247 247 242 238 235 236 239 241 237 234 232 233 233 231 230 232 234 235 234 233 233 233 232 231 231 231 231 232 232 233 236 240 243 247 250 252 253 254
296 293 290 287 285 289 300 310 313 320 328 333 336 336 338 341 341 337 334 330 325 319 312 304 294 284 278 271 262 258 255 252 250 246 243 240 241 245 246 243 240 239 239 238 236 234 232 233 234 231 228 229 231 232 232 230 229 229 228 228 228 227 227 226 226 228 233 239 244 249 252 254 254 253
296 293 289 286 285 288 298 310 315 317 321 326 330 332 335 339 340 338 333 328 323 318 311 303 297 288 279 273 267 260 256 254 253 249 243 239 238 241 244 243 242 241 238 235 235 235 233 234 234 231 227 227 228 230 230 228 227 225 225 225 224 224 223 221 223 228 235 241 247 251 253 255 255 254
296 292 291 291 289 290 299 309 315 318 319 323 328 331 333 336 338 337 333 326 319 314 308 300 294 288 281 275 268 264 261 257 254 250 244 240 239 238 238 238 237 235 232 232 234 235 234 233 233 231 228 226 227 228 229 230 229 226 225 224 224 223 221 221 224 230 237 244 249 254 257 257 257 254
302 293 292 295 293 292 299 308 314 317 319 322 327 332 335 338 339 338 335 327 316 310 307 300 291 286 284 278 269 263 261 258 253 249 245 243 241 238 235 234 234 233 231 230 232 234 233 232 232 232 229 227 227 230 231 232 231 228 227 226 226 224 223 225 230 235 240 245 252 259 261 261 259 255
311 303 300 301 299 294 297 306 311 315 318 319 323 330 336 339 340 340 339 334 322 311 307 302 294 289 286 282 271 260 256 256 251 246 244 242 239 237 234 232 234 236 233 230 231 234 233 231 231 230 229 228 229 231 233 232 232 232 230 229 228 228 229 232 237 239 241 247 255 262 264 263 260 255
317 312 307 305 303 300 301 305 309 313 315 315 319 325 331 336 339 340 340 339 331 318 310 302 295 290 284 280 273 261 252 250 248 245 242 240 239 238 237 236 237 238 236 233 232 234 233 230 229 229 229 229 230 232 234 233 233 233 232 231 230 231 234 237 239 241 244 251 258 262 264 263 260 255
321 314 308 306 306 308 312 311 311 313 313 315 319 321 324 333 338 338 338 337 332 324 317 307 297 288 280 275 271 264 253 246 244 243 241 240 240 238 237 237 236 236 237 234 230 232 233 230 228 229 230 229 230 233 234 235 235 234 233 233 233 234 237 239 240 242 247 253 258 262 263 262 258 253
322 318 315 315 314 317 319 315 313 314 313 317 321 321 325 335 338 338 339 337 331 327 325 318 307 291 277 270 264 259 251 242 239 241 242 241 238 236 235 234 232 230 232 232 228 229 232 230 230 231 230 229 231 233 234 235 236 234 234 234 235 236 238 239 240 242 247 253 258 261 262 260 255 250
317 317 321 326 326 325 322 317 317 317 316 319 321 322 331 340 340 339 341 339 334 333 332 329 317 292 273 263 255 250 244 235 230 235 241 240 236 236 237 234 228 225 226 228 227 226 227 228 230 232 231 230 232 233 235 236 235 235 236 236 238 239 238 238 240 244 248 253 258 260 259 256 251 247
315 318 325 330 327 323 320 319 320 321 321 322 322 326 337 343 341 342 344 342 340 340 339 336 326 295 270 259 249 243 238 230 223 226 234 236 233 233 232 228 225 224 225 227 228 227 227 228 231 232 231 232 233 233 235 236 236 235 236 237 238 239 240 240 242 245 249 253 257 257 255 251 246 244
313 318 322 324 321 318 317 318 321 323 323 322 321 330 343 346 345 345 345 344 344 345 344 344 339 316 284 265 249 239 233 227 220 219 225 230 229 229 228 225 223 224 226 227 227 228 229 229 229 228 226 228 231 232 233 235 237 237 237 238 238 238 239 240 242 244 249 253 254 253 249 245 242 241
310 312 315 318 320 319 318 320 322 323 323 321 320 326 341 348 348 346 345 347 348 349 349 350 350 340 312 281 257 238 229 224 218 214 215 222 226 227 228 227 225 224 226 226 227 230 231 228 226 226 223 223 228 231 232 233 235 236 236 237 237 238 239 239 240 243 249 252 251 247 243 240 238 237
306 308 311 315 319 321 320 322 323 322 321 322 320 321 332 344 346 345 346 350 353 353 353 355 358 359 344 298 268 249 233 223 217 212 211 216 224 227 228 228 228 229 230 230 229 231 230 226 224 225 225 224 227 231 233 232 231 232 233 235 236 238 238 237 239 244 249 250 247 242 238 235 234 233
304 306 309 314 317 320 321 322 322 321 320 321 321 320 326 336 341 343 349 354 356 357 357 358 2 7 4 332 269 258 245 225 215 212 212 214 219 224 225 226 228 231 234 233 231 228 227 226 225 226 226 226 225 227 229 230 230 230 231 233 236 237 236 235 240 245 248 247 243 238 235 233 231 230
304 305 306 311 315 317 320 322 321 320 319 319 322 323 323 328 332 338 350 357 360 1 1 1 6 11 11 4 310 246 243 226 213 211 213 215 217 221 225 226 230 234 237 237 233 229 230 234 232 228 226 224 220 220 225 228 229 228 229 232 236 234 231 234 242 246 246 243 238 234 232 230 228 227
303 302 303 310 315 316 320 322 320 320 321 322 325 325 319 322 328 335 350 2 3 4 4 4 7 13 14 11 5 241 218 216 214 212 213 217 221 224 227 229 231 233 235 236 234 231 232 236 232 225 223 222 217 218 222 224 226 229 229 230 231 231 230 236 244 244 240 236 234 231 230 228 226 224
300 301 304 311 316 316 319 321 319 322 326 326 330 330 325 329 335 339 356 10 9 5 7 8 8 13 18 19 18 327 202 202 209 212 215 219 222 225 229 232 233 233 231 231 233 235 238 238 229 220 219 222 221 221 221 220 225 232 229 222 223 229 233 237 240 237 234 232 231 230 229 229 227 225
297 301 308 315 317 315 317 319 319 323 326 328 333 338 338 344 348 344 358 16 16 9 8 11 13 17 23 27 29 33 204 205 208 213 217 219 220 221 224 228 231 232 229 228 234 240 242 241 231 221 221 226 227 227 227 225 227 232 230 223 223 228 232 233 234 233 231 230 231 231 231 230 229 227
296 303 313 321 320 312 313 319 321 324 328 330 335 344 351 357 359 353 358 15 21 18 14 14 17 23 27 30 33 37 38 177 212 215 218 219 220 222 224 226 229 231 230 228 232 237 239 240 239 233 230 234 236 236 234 231 230 233 233 226 221 222 226 228 229 230 230 231 232 233 231 229 229 228
303 312 321 321 314 312 316 321 323 327 333 338 342 352 2 5 4 1 360 9 20 24 23 20 20 23 27 29 32 35 38 41 48 208 217 217 216 219 223 226 227 228 229 228 229 233 236 239 243 246 246 244 242 242 243 240 235 233 233 227 218 216 221 224 224 224 226 229 234 235 232 229 227 226
314 320 315 302 305 314 320 322 327 333 341 349 355 3 11 14 10 5 3 6 15 22 27 28 25 23 26 30 32 35 40 42 44 49 99 209 214 217 223 225 226 229 233 235 234 234 235 238 243 250 252 247 241 242 247 248 242 237 235 229 218 211 213 218 221 222 223 225 230 235 232 225 223 224
316 316 312 308 313 323 330 335 344 352 355 359 5 11 18 20 15 9 3 3 11 19 25 31 32 28 27 29 30 34 40 43 44 47 53 65 134 193 205 210 217 225 230 229 229 230 231 233 236 239 241 240 238 239 242 242 239 236 231 222 210 204 209 216 220 222 223 225 229 230 222 215 218 221
320 321 325 329 335 346 356 4 11 15 13 12 13 17 24 26 21 14 7 2 6 16 21 27 33 34 33 32 30 30 36 41 43 46 50 54 60 69 81 112 155 175 182 199 210 215 216 220 224 227 230 234 234 232 228 222 219 216 212 208 205 205 212 217 218 219 220 221 222 219 211 209 216 217
338 343 351 0 10 22 33 33 29 29 28 24 18 17 22 27 24 21 17 11 11 15 16 19 28 32 34 35 35 33 33 35 38 43 46 48 51 55 60 67 75 80 95 140 188 204 206 212 221 227 227 225 223 221 217 211 205 201 201 205 208 210 214 215 213 214 214 211 208 208 207 206 208 203
360 8 10 18 29 38 38 31 26 27 27 21 13 8 10 17 18 18 19 19 18 19 18 16 21 26 28 30 35 38 36 33 33 37 40 41 43 47 51 56 60 64 70 78 96 163 194 201 210 220 223 219 214 209 205 204 206 206 207 210 212 213 214 212 207 208 209 205 199 199 204 204 197 188
10 11 7 10 13 13 14 14 15 18 18 13 10 6 5 9 12 13 15 18 19 20 21 18 17 22 25 25 28 36 40 38 34 33 35 35 36 39 44 48 52 57 62 67 71 80 109 148 168 189 205 203 190 173 165 171 187 203 211 213 212 212 213 212 207 203 202 200 196 194 196 195 184 175
12 8 3 3 1 1 9 17 22 25 25 22 19 15 9 10 12 13 15 17 17 19 22 22 21 23 26 27 28 33 38 38 34 31 32 32 32 34 38 41 45 50 54 59 63 66 71 83 95 105 125 143 141 137 135 132 134 173 208 210 206 206 209 211 209 203 199 198 195 191 192 192 183 171
47 63 53 32 24 25 32 38 38 35 33 31 27 23 18 17 17 17 16 17 17 17 18 20 23 27 29 30 32 32 31 32 32 31 30 28 29 33 35 35 37 43 47 51 53 56 60 65 72 79 90 100 107 114 120 116 109 115 157 185 191 197 201 204 205 203 201 201 199 192 190 191 185 175
92 86 72 49 36 28 28 35 36 32 30 31 31 28 23 21 19 17 16 16 17 17 16 15 20 29 34 35 36 36 34 32 33 33 31 27 27 33 37 35 34 37 42 47 50 50 52 57 63 71 82 94 104 108 106 98 90 87 87 97 128 170 184 191 196 195 192 193 195 194 191 189 184 178
96 75 59 49 41 29 20 23 27 24 21 22 22 20 17 14 12 10 10 12 14 16 17 17 19 28 36 38 38 39 39 37 35 34 32 29 27 31 35 37 36 37 39 45 50 52 52 53 56 62 74 87 96 96 90 83 77 74 74 75 78 83 90 118 168 186 186 182 180 179 179 180 179 177
72 68 58 50 43 27 14 12 11 7 5 6 5 2 359 359 358 358 359 1 3 8 14 17 20 28 35 38 40 41 41 39 37 37 35 32 31 35 38 38 38 39 43 46 49 52 54 54 54 56 60 65 71 79 84 82 77 74 73 70 69 72 75 77 82 93 120 155 154 157 165 172 170 167
37 54 46 32 22 10 1 357 351 347 350 355 352 346 345 347 350 350 349 350 354 358 3 11 19 27 32 34 36 42 44 41 39 38 38 34 30 35 41 42 39 41 48 51 49 48 52 54 55 57 59 61 63 69 79 85 85 83 79 71 63 65 69 70 74 82 89 91 87 91 119 148 151 146
15 24 14 358 352 353 352 349 344 342 344 347 342 338 340 344 349 350 348 345 348 353 360 10 20 27 31 30 29 33 41 42 39 37 38 37 32 30 34 39 39 39 44 49 49 48 48 47 47 50 54 58 62 67 75 85 93 95 92 85 76 75 75 73 72 77 82 86 85 81 83 101 117 120